Location: Newark
(50.2306°N, 14.0814°E)
Time: 11:21:01
(UTC+00:00)

N. Korean satellite - Pass Details

Date: 14 December 2019
Orbit: 454 x 508 km, 97.2° (Epoch: 17 January)

Event Time Altitude Azimuth Distance (km) Brightness Sun altitude
Rises 04:50:23 0° 16° (NNE) 2,543 10.2 -18.8°
Reaches altitude 10° 04:52:30 10° 20° (NNE) 1,650 9.3 -18.5°
Maximum altitude 04:56:00 59° 100° (E) 546 7.1 -17.9°
Drops below altitude 10° 04:59:25 10° 182° (S) 1,609 9.4 -17.4°
Sets 05:01:27 0° 186° (S) 2,472 10.3 -17.1°
